Location: Sternwarte ZA, Rosenfeld-Brittheim
(48.2889°N, 8.6789°E)
Time: 19:43:23
(UTC+01:00)

ISS - Pass Details

Date: 08 December 2017
Orbit: 402 x 407 km, 51.6° (Epoch: 11 December)

Event Time Altitude Azimuth Distance (km) Brightness Sun altitude
Rises 19:09:39 0° 290° (WNW) 2,332 1.0 -25.3°
Reaches altitude 10° 19:11:45 10° 293° (WNW) 1,469 -0.2 -25.7°
Enters shadow 19:13:07 23° 298° (WNW) 932 -1.5 -25.9°
